User: anonymous   Login
Location: Unspecified
(0.0000°N, 0.0000°E)
Time: 19:22:56
(UTC+00:00)
Language:

CUTE 1.7 + AOD 2 - Orbit

View from above orbital plane
View from above orbital plane
View from above satellite
View from above satellite

Ground track
Ground track

The orbit data is extracted from the following two-line orbital elements,

1 32785U 08021C   17178.46485360 +.00000210 +00000-0 +28593-4 0  9990
2 32785 097.5659 202.2687 0014373 130.0767 230.1713 14.87896202496358
Epoch (UTC): 27 June 2017 11:09:23
Eccentricity: 0.0014373
inclination: 97.5659°
perigee height: 594 km
apogee height: 614 km
right ascension of ascending node: 202.2687°
argument of perigee: 130.0767°
revolutions per day: 14.87896202
mean anomaly at epoch: 230.1713°
orbit number at epoch: 49635

The dashed part of the orbit path shows where the satellite is in the earth's shadow,  

DLR